Regional Weather Roundup
Issued by NWS

Home | Current Version | Previous Version | Graphics & Text | Print | Product List | Glossary On
Versions: 1 2 3 4 5 6 7 8 9 10 11 12 13 14 15 16 17 18 19 20 21 22 23 24 25 26 27 28 29 30 31 32 33 34 35 36 37 38 39 40 41 42 43 44 45 46 47 48 49 50
000
ASUS43 KFSD 240910
RWRSD

WEATHER ROUNDUP FOR SOUTH DAKOTA
NATIONAL WEATHER SERVICE SIOUX FALLS SD
400 AM CDT MON JUL 24 2017

NOTE: "FAIR" INDICATES FEW OR NO CLOUDS BELOW 12,000 FEET WITH NO
SIGNIFICANT WEATHER AND/OR OBSTRUCTIONS TO VISIBILITY.


SDZ001>005-009-010-012>017-241000-
NORTHWEST AND NORTH CENTRAL SOUTH DAKOTA

CITY           SKY/WX    TMP DP  RH WIND       PRES   REMARKS
BUFFALO          N/A     78  51  38 SW46G54   29.87F
FAITH            N/A     69  56  62 SE24G30   29.92F
MOBRIDGE       CLOUDY    68  61  78 S13       29.95F
$$

SDZ012>016-024>037-041>051-057-063-072>074-241000-
SOUTHWEST AND SOUTH CENTRAL SOUTH DAKOTA

CITY           SKY/WX    TMP DP  RH WIND       PRES   REMARKS
RAPID CTY ARPT MOCLDY    71  51  49 N8        29.97R
PIERRE         CLOUDY    67  57  70 SE12      29.96F
CUSTER         CLOUDY    62  46  55 CALM      30.07F
ELLSWORTH AFB  CLOUDY    74  51  43 NW15G21   29.97R
PHILIP         CLOUDY    68  57  68 E10       29.92F
PINE RIDGE     PTCLDY    73  55  53 SW12      29.94F
SPEARFISH      FAIR      64  59  82 E13       30.00F
WINNER         FAIR      69  57  65 SE9       29.99F
$$

SDZ004>011-016>023-039-040-241000-
NORTHEAST SOUTH DAKOTA

CITY           SKY/WX    TMP DP  RH WIND       PRES   REMARKS
ABERDEEN       CLEAR     59  58  96 S6        30.00R
WATERTOWN      CLEAR     60  57  89 SE5       30.01F
BROOKINGS      CLEAR     57  56  96 CALM      30.03S
SISSETON         N/A     55  54  96 S6        29.99S
$$

SDZ017-020-022-023-036>040-048>070-241000-
SOUTHEAST SOUTH DAKOTA

CITY           SKY/WX    TMP DP  RH WIND       PRES   REMARKS
SIOUX FALLS    CLEAR     59  58  96 CALM      30.03S
HURON          CLEAR     62  59  90 S8        30.01R
CHAMBERLAIN    CLEAR     64  61  88 E9        30.00S
MITCHELL       CLEAR     65  60  84 S8        30.02S
YANKTON        CLEAR     62  60  93 CALM      30.03S
$$

ABBREVIATIONS USED IN REMARKS
   TC - TEMPERATURE IN CELSIUS
  WCI - WIND CHILL INDEX
   HX - HEAT INDEX
  VSB - VISIBILITY




USA.gov is the U.S. government's official web portal to all federal, state and local government web resources and services.